Terug naar catalogus

STARLINK-11500

ActiefCommunicatieVLEO
NORAD 62472·PAYLOAD·🇺🇸 United States

Gelanceerd Dec 31, 2024 vanaf Cape Canaveral Space Force Station

Loading…

Volgende Passages (komende 24 uur)

TLE

VersSource: CelesTrak SupGP

Epoch: Sep 14, 2026, 22:56 UTC

1 62472C 24254L   26257.95604167  .00017424  00000+0  13549-3 0  2577
2 62472  43.0000 161.8593 0001482 250.4864  18.7914 15.70802179    18

Volg STARLINK-11500 in realtime met AllMySat

Download on the App Store